Lid_Strength_Index
15 14 14 13 13 13 13 13 14 16 15 13 13 12 11 11 10 11 12 9 8 8 7 7 7 6 6 5 5 5 4 4 4 3 1 0 -1 -1
14 15 15 14 14 14 13 13 13 14 16 14 13 13 12 11 11 12 12 9 9 9 8 8 7 7 7 6 6 6 5 5 4 4 3 1 -0 -1
15 15 15 14 15 14 14 14 14 14 16 14 13 13 13 13 12 12 11 12 11 9 8 8 7 7 7 7 6 6 6 6 6 5 4 3 2 0
16 16 16 14 15 15 15 15 15 15 15 16 14 14 14 14 13 14 12 11 12 10 8 8 7 7 7 6 6 5 5 5 5 6 5 5 4 4
16 16 16 16 16 16 16 16 15 14 15 16 15 14 14 14 14 13 13 12 11 9 9 9 9 8 8 7 7 7 7 7 6 6 5 5 5 5
15 15 16 16 16 16 15 16 15 16 16 16 16 16 15 14 14 15 15 13 13 12 11 11 10 9 9 8 8 8 8 7 6 6 6 6 5 5
16 15 15 15 13 14 15 16 16 17 17 17 17 16 16 16 16 15 16 15 15 14 14 13 13 13 12 11 10 9 8 8 7 6 5 4 5 4
16 15 15 14 14 13 13 12 13 16 16 16 16 17 16 16 15 16 16 16 17 13 14 14 13 13 12 12 10 9 8 8 7 6 6 6 6 5
16 15 15 14 14 14 13 13 13 12 12 14 15 16 16 15 15 15 15 15 15 13 13 15 13 13 12 11 9 9 9 8 8 7 7 6 6 5
15 15 15 15 15 14 14 15 15 14 14 14 14 14 14 13 12 13 13 14 13 13 13 16 14 14 13 12 10 10 9 9 8 7 7 7 7 7
15 15 15 15 14 13 14 15 15 15 13 12 12 12 12 12 12 14 16 16 17 16 15 16 15 15 14 14 12 10 9 9 8 8 8 7 7 7
15 15 14 15 13 13 15 17 17 16 16 15 14 15 15 15 14 15 16 17 17 17 14 17 17 16 17 13 12 13 12 9 9 9 9 8 7 8
18 16 15 14 14 14 14 15 16 14 14 16 17 17 16 16 16 16 16 17 18 18 16 16 17 17 17 17 15 14 14 13 11 10 9 9 8 8
23 21 17 15 14 14 15 14 14 16 17 17 17 17 17 18 17 17 17 16 16 17 16 16 17 17 18 18 18 15 14 13 12 12 10 9 9 8
24 19 15 16 16 17 16 16 17 18 18 18 19 19 19 18 18 17 17 17 16 16 15 16 16 16 17 18 18 17 16 15 13 12 11 10 10 10
18 22 19 18 17 19 23 24 23 19 19 20 20 19 18 19 19 18 19 18 18 18 16 16 16 16 17 17 17 18 17 18 16 14 11 10 10 10
23 28 27 27 28 30 29 29 28 29 27 28 22 20 20 20 20 19 19 19 20 19 19 17 16 16 16 17 19 18 18 17 16 15 13 12 11 11
21 28 30 32 30 31 31 31 32 27 30 29 26 26 23 21 20 19 20 20 20 20 19 19 18 18 19 18 15 17 17 17 17 15 14 14 13 11
19 23 28 31 31 32 32 32 30 31 33 32 30 27 26 24 22 21 21 21 21 20 20 19 19 20 22 22 17 14 17 17 17 18 17 16 14 11
19 21 23 25 29 29 31 30 31 29 30 30 30 28 28 28 24 24 23 23 22 21 21 21 21 20 21 21 20 18 15 17 18 18 18 16 14 11
17 18 19 21 23 25 26 27 30 29 27 30 28 29 28 31 25 25 24 20 20 23 24 23 21 17 18 18 20 19 17 15 15 16 16 16 16 14
16 17 17 18 20 22 23 24 24 24 27 29 26 28 27 31 26 24 23 24 23 23 23 22 21 19 20 19 20 19 19 17 16 14 12 12 15 16
14 16 17 17 18 19 21 23 24 23 23 26 25 26 27 28 26 24 25 23 23 22 23 23 21 21 21 21 19 20 20 20 18 18 16 11 9 9